owner,sensor,date,latitude,longitude,vertical_datum,mass_concentration_of_oxygen_in_sea_water,qcFlag 
DISL,ioos:station:DISL:MHPA:1,2017-03-01T00:00:00Z,30.6671,-87.9365,1.144,10.02,1111122 
DISL,ioos:station:DISL:MHPA:1,2017-03-01T00:30:00Z,30.6671,-87.9365,1.113,9.84,1111122 
DISL,ioos:station:DISL:MHPA:1,2017-03-01T01:00:00Z,30.6671,-87.9365,1.094,9.67,1111122 
DISL,ioos:station:DISL:MHPA:1,2017-03-01T01:30:00Z,30.6671,-87.9365,1.081,9.74,1111122 
DISL,ioos:station:DISL:MHPA:1,2017-03-01T02:00:00Z,30.6671,-87.9365,1.049,9.77,1111122 
DISL,ioos:station:DISL:MHPA:1,2017-03-01T02:30:00Z,30.6671,-87.9365,1.039,9.77,1111122 
DISL,ioos:station:DISL:MHPA:1,2017-03-01T03:00:00Z,30.6671,-87.9365,1.056,9.66,1111122 
DISL,ioos:station:DISL:MHPA:1,2017-03-01T03:30:00Z,30.6671,-87.9365,1.083,9.64,1111122 
DISL,ioos:station:DISL:MHPA:1,2017-03-01T04:00:00Z,30.6671,-87.9365,1.124,9.62,1111122 
DISL,ioos:station:DISL:MHPA:1,2017-03-01T04:30:00Z,30.6671,-87.9365,1.166,9.54,1111122 
DISL,ioos:station:DISL:MHPA:1,2017-03-01T05:00:00Z,30.6671,-87.9365,1.203,9.59,1111122 
DISL,ioos:station:DISL:MHPA:1,2017-03-01T05:30:00Z,30.6671,-87.9365,1.23,9.36,1111122 
DISL,ioos:station:DISL:MHPA:1,2017-03-01T06:00:00Z,30.6671,-87.9365,1.263,9.27,1111122 
DISL,ioos:station:DISL:MHPA:1,2017-03-01T06:30:00Z,30.6671,-87.9365,1.276,9.04,1111122 
DISL,ioos:station:DISL:MHPA:1,2017-03-01T07:00:00Z,30.6671,-87.9365,1.29,9.3,1111122 
DISL,ioos:station:DISL:MHPA:1,2017-03-01T07:30:00Z,30.6671,-87.9365,1.321,9.48,1111122 
DISL,ioos:station:DISL:MHPA:1,2017-03-01T08:00:00Z,30.6671,-87.9365,1.334,9.38,1111122 
DISL,ioos:station:DISL:MHPA:1,2017-03-01T08:30:00Z,30.6671,-87.9365,1.361,9.06,1111122 
DISL,ioos:station:DISL:MHPA:1,2017-03-01T09:00:00Z,30.6671,-87.9365,1.348,9.02,1111122 
DISL,ioos:station:DISL:MHPA:1,2017-03-01T09:30:00Z,30.6671,-87.9365,1.348,8.96,1111122 
DISL,ioos:station:DISL:MHPA:1,2017-03-01T10:00:00Z,30.6671,-87.9365,1.36,8.8,1111122 
DISL,ioos:station:DISL:MHPA:1,2017-03-01T10:30:00Z,30.6671,-87.9365,1.358,8.71,1111122 
DISL,ioos:station:DISL:MHPA:1,2017-03-01T11:00:00Z,30.6671,-87.9365,1.343,8.77,1111122 
DISL,ioos:station:DISL:MHPA:1,2017-03-01T11:30:00Z,30.6671,-87.9365,1.334,8.75,1111122 
DISL,ioos:station:DISL:MHPA:1,2017-03-01T12:00:00Z,30.6671,-87.9365,1.31,8.51,1111122 
DISL,ioos:station:DISL:MHPA:1,2017-03-01T12:30:00Z,30.6671,-87.9365,1.27,8.43,1111122 
DISL,ioos:station:DISL:MHPA:1,2017-03-01T13:00:00Z,30.6671,-87.9365,1.231,8.45,1111122 
DISL,ioos:station:DISL:MHPA:1,2017-03-01T13:30:00Z,30.6671,-87.9365,1.201,8.14,1111122 
DISL,ioos:station:DISL:MHPA:1,2017-03-01T14:00:00Z,30.6671,-87.9365,1.2,7.79,1111122 
DISL,ioos:station:DISL:MHPA:1,2017-03-01T14:30:00Z,30.6671,-87.9365,1.19,8.03,1111122 
DISL,ioos:station:DISL:MHPA:1,2017-03-01T15:00:00Z,30.6671,-87.9365,1.167,7.99,1111122 
DISL,ioos:station:DISL:MHPA:1,2017-03-01T15:30:00Z,30.6671,-87.9365,1.175,8.32,1111122 
DISL,ioos:station:DISL:MHPA:1,2017-03-01T16:00:00Z,30.6671,-87.9365,1.18,8.28,1111122 
DISL,ioos:station:DISL:MHPA:1,2017-03-01T16:30:00Z,30.6671,-87.9365,1.173,8.49,1111122 
DISL,ioos:station:DISL:MHPA:1,2017-03-01T17:00:00Z,30.6671,-87.9365,1.166,8.63,1111122 
DISL,ioos:station:DISL:MHPA:1,2017-03-01T17:30:00Z,30.6671,-87.9365,1.162,8.83,1111122 
DISL,ioos:station:DISL:MHPA:1,2017-03-01T21:30:00Z,30.6671,-87.9365,1.202,9.53,1111122 
DISL,ioos:station:DISL:MHPA:1,2017-03-01T22:00:00Z,30.6671,-87.9365,1.229,9.75,1111122 
DISL,ioos:station:DISL:MHPA:1,2017-03-01T22:30:00Z,30.6671,-87.9365,1.217,9.58,1111122 
DISL,ioos:station:DISL:MHPA:1,2017-03-01T23:00:00Z,30.6671,-87.9365,1.206,9.48,1111122 
DISL,ioos:station:DISL:MHPA:1,2017-03-01T23:30:00Z,30.6671,-87.9365,1.204,9.55,1111122 
DISL,ioos:station:DISL:MHPA:1,2017-03-02T00:00:00Z,30.6671,-87.9365,1.184,10.54,1111122 
DISL,ioos:station:DISL:MHPA:1,2017-03-02T00:30:00Z,30.6671,-87.9365,1.173,11.16,1111122 
DISL,ioos:station:DISL:MHPA:1,2017-03-02T01:00:00Z,30.6671,-87.9365,1.161,10.75,1111122 
DISL,ioos:station:DISL:MHPA:1,2017-03-02T01:30:00Z,30.6671,-87.9365,1.148,10.67,1111122 
DISL,ioos:station:DISL:MHPA:1,2017-03-02T02:00:00Z,30.6671,-87.9365,1.134,10.66,1111122 
DISL,ioos:station:DISL:MHPA:1,2017-03-02T02:30:00Z,30.6671,-87.9365,1.122,9.97,1111122 
DISL,ioos:station:DISL:MHPA:1,2017-03-02T03:00:00Z,30.6671,-87.9365,1.086,9.35,1111122 
DISL,ioos:station:DISL:MHPA:1,2017-03-02T03:30:00Z,30.6671,-87.9365,1.05,9.62,1111122 
DISL,ioos:station:DISL:MHPA:1,2017-03-02T04:00:00Z,30.6671,-87.9365,1.031,9.56,1111122 
DISL,ioos:station:DISL:MHPA:1,2017-03-02T04:30:00Z,30.6671,-87.9365,1.01,9.23,1111122 
DISL,ioos:station:DISL:MHPA:1,2017-03-02T05:00:00Z,30.6671,-87.9365,1.004,9.44,1111122 
DISL,ioos:station:DISL:MHPA:1,2017-03-02T05:30:00Z,30.6671,-87.9365,0.97,9.51,1111122 
DISL,ioos:station:DISL:MHPA:1,2017-03-02T06:00:00Z,30.6671,-87.9365,0.965,9.29,1111122 
DISL,ioos:station:DISL:MHPA:1,2017-03-02T06:30:00Z,30.6671,-87.9365,0.946,9.32,1111122 
DISL,ioos:station:DISL:MHPA:1,2017-03-02T07:00:00Z,30.6671,-87.9365,0.922,8.76,1111122 
DISL,ioos:station:DISL:MHPA:1,2017-03-02T07:30:00Z,30.6671,-87.9365,0.948,8.84,1111122 
DISL,ioos:station:DISL:MHPA:1,2017-03-02T08:00:00Z,30.6671,-87.9365,0.907,8.84,1111122 
DISL,ioos:station:DISL:MHPA:1,2017-03-02T08:30:00Z,30.6671,-87.9365,0.855,8.64,1111122 
DISL,ioos:station:DISL:MHPA:1,2017-03-02T09:00:00Z,30.6671,-87.9365,0.804,8.85,1111122 
DISL,ioos:station:DISL:MHPA:1,2017-03-02T09:30:00Z,30.6671,-87.9365,0.754,8.97,1111122 
DISL,ioos:station:DISL:MHPA:1,2017-03-02T10:00:00Z,30.6671,-87.9365,0.709,8.96,1111122 
DISL,ioos:station:DISL:MHPA:1,2017-03-02T10:30:00Z,30.6671,-87.9365,0.673,9.01,1111122 
DISL,ioos:station:DISL:MHPA:1,2017-03-02T11:00:00Z,30.6671,-87.9365,0.643,8.89,1111122 
DISL,ioos:station:DISL:MHPA:1,2017-03-02T11:30:00Z,30.6671,-87.9365,0.616,8.85,1111122 
DISL,ioos:station:DISL:MHPA:1,2017-03-02T12:00:00Z,30.6671,-87.9365,0.596,8.8,1111122 
DISL,ioos:station:DISL:MHPA:1,2017-03-02T12:30:00Z,30.6671,-87.9365,0.58,8.79,1111122 
DISL,ioos:station:DISL:MHPA:1,2017-03-02T13:00:00Z,30.6671,-87.9365,0.567,8.8,1111122 
DISL,ioos:station:DISL:MHPA:1,2017-03-02T13:30:00Z,30.6671,-87.9365,0.555,8.91,1111122 
DISL,ioos:station:DISL:MHPA:1,2017-03-02T14:00:00Z,30.6671,-87.9365,0.543,8.81,1111122 
DISL,ioos:station:DISL:MHPA:1,2017-03-02T14:30:00Z,30.6671,-87.9365,0.531,8.81,1111122 
DISL,ioos:station:DISL:MHPA:1,2017-03-02T15:00:00Z,30.6671,-87.9365,0.519,8.88,1111122 
DISL,ioos:station:DISL:MHPA:1,2017-03-02T15:30:00Z,30.6671,-87.9365,0.511,8.8,1111122 
DISL,ioos:station:DISL:MHPA:1,2017-03-02T16:00:00Z,30.6671,-87.9365,0.505,8.77,1111122 
DISL,ioos:station:DISL:MHPA:1,2017-03-02T16:30:00Z,30.6671,-87.9365,0.496,8.81,1111122 
DISL,ioos:station:DISL:MHPA:1,2017-03-02T17:00:00Z,30.6671,-87.9365,0.491,8.8,1111122 
DISL,ioos:station:DISL:MHPA:1,2017-03-02T17:30:00Z,30.6671,-87.9365,0.489,9.02,1111122 
DISL,ioos:station:DISL:MHPA:1,2017-03-02T18:00:00Z,30.6671,-87.9365,0.492,9.07,1111122 
DISL,ioos:station:DISL:MHPA:1,2017-03-02T18:30:00Z,30.6671,-87.9365,0.505,9.21,1111122 
DISL,ioos:station:DISL:MHPA:1,2017-03-02T19:00:00Z,30.6671,-87.9365,0.543,9.18,1111122 
DISL,ioos:station:DISL:MHPA:1,2017-03-02T19:30:00Z,30.6671,-87.9365,0.603,9.32,1111122 
DISL,ioos:station:DISL:MHPA:1,2017-03-02T20:00:00Z,30.6671,-87.9365,0.675,9.4,1111122 
DISL,ioos:station:DISL:MHPA:1,2017-03-02T20:30:00Z,30.6671,-87.9365,0.74,9.33,1111122 
DISL,ioos:station:DISL:MHPA:1,2017-03-02T21:00:00Z,30.6671,-87.9365,0.796,9.59,1111122 
DISL,ioos:station:DISL:MHPA:1,2017-03-02T21:30:00Z,30.6671,-87.9365,0.831,9.8,1111122 
DISL,ioos:station:DISL:MHPA:1,2017-03-02T22:00:00Z,30.6671,-87.9365,0.869,9.95,1111122 
DISL,ioos:station:DISL:MHPA:1,2017-03-02T22:30:00Z,30.6671,-87.9365,0.912,9.95,1111122 
DISL,ioos:station:DISL:MHPA:1,2017-03-02T23:00:00Z,30.6671,-87.9365,0.911,9.92,1111122 
DISL,ioos:station:DISL:MHPA:1,2017-03-02T23:30:00Z,30.6671,-87.9365,0.904,9.97,1111122 
DISL,ioos:station:DISL:MHPA:1,2017-03-03T00:00:00Z,30.6671,-87.9365,0.913,9.92,1111122 
DISL,ioos:station:DISL:MHPA:1,2017-03-03T00:30:00Z,30.6671,-87.9365,0.907,9.88,1111122 
DISL,ioos:station:DISL:MHPA:1,2017-03-03T01:00:00Z,30.6671,-87.9365,0.903,9.79,1111122 
DISL,ioos:station:DISL:MHPA:1,2017-03-03T01:30:00Z,30.6671,-87.9365,0.894,9.67,1111122 
DISL,ioos:station:DISL:MHPA:1,2017-03-03T02:00:00Z,30.6671,-87.9365,0.87,9.88,1111122 
DISL,ioos:station:DISL:MHPA:1,2017-03-03T02:30:00Z,30.6671,-87.9365,0.849,9.77,1111122 
DISL,ioos:station:DISL:MHPA:1,2017-03-03T03:00:00Z,30.6671,-87.9365,0.828,9.67,1111122 
DISL,ioos:station:DISL:MHPA:1,2017-03-03T03:30:00Z,30.6671,-87.9365,0.805,9.55,1111122 
DISL,ioos:station:DISL:MHPA:1,2017-03-03T04:00:00Z,30.6671,-87.9365,0.783,9.52,1111122 
DISL,ioos:station:DISL:MHPA:1,2017-03-03T04:30:00Z,30.6671,-87.9365,0.757,9.55,1111122 
DISL,ioos:station:DISL:MHPA:1,2017-03-03T05:00:00Z,30.6671,-87.9365,0.728,9.48,1111122 
DISL,ioos:station:DISL:MHPA:1,2017-03-03T05:30:00Z,30.6671,-87.9365,0.701,9.51,1111122 
DISL,ioos:station:DISL:MHPA:1,2017-03-03T06:00:00Z,30.6671,-87.9365,0.68,9.41,1111122 
DISL,ioos:station:DISL:MHPA:1,2017-03-03T06:30:00Z,30.6671,-87.9365,0.666,9.38,1111122 
DISL,ioos:station:DISL:MHPA:1,2017-03-03T07:00:00Z,30.6671,-87.9365,0.66,9.27,1111122 
DISL,ioos:station:DISL:MHPA:1,2017-03-03T07:30:00Z,30.6671,-87.9365,0.658,9.28,1111122 
DISL,ioos:station:DISL:MHPA:1,2017-03-03T08:00:00Z,30.6671,-87.9365,0.655,9.23,1111122 
DISL,ioos:station:DISL:MHPA:1,2017-03-03T08:30:00Z,30.6671,-87.9365,0.65,9.22,1111122 
DISL,ioos:station:DISL:MHPA:1,2017-03-03T09:00:00Z,30.6671,-87.9365,0.642,9.02,1111122 
DISL,ioos:station:DISL:MHPA:1,2017-03-03T09:30:00Z,30.6671,-87.9365,0.63,9.01,1111122 
DISL,ioos:station:DISL:MHPA:1,2017-03-03T10:00:00Z,30.6671,-87.9365,0.619,9.18,1111122 
DISL,ioos:station:DISL:MHPA:1,2017-03-03T10:30:00Z,30.6671,-87.9365,0.61,8.97,1111122 
DISL,ioos:station:DISL:MHPA:1,2017-03-03T11:00:00Z,30.6671,-87.9365,0.605,9.01,1111122 
DISL,ioos:station:DISL:MHPA:1,2017-03-03T11:30:00Z,30.6671,-87.9365,0.608,8.93,1111122 
DISL,ioos:station:DISL:MHPA:1,2017-03-03T12:00:00Z,30.6671,-87.9365,0.622,9.06,1111122 
DISL,ioos:station:DISL:MHPA:1,2017-03-03T12:30:00Z,30.6671,-87.9365,0.646,8.9,1111122 
DISL,ioos:station:DISL:MHPA:1,2017-03-03T13:00:00Z,30.6671,-87.9365,0.677,8.95,1111122 
DISL,ioos:station:DISL:MHPA:1,2017-03-03T13:30:00Z,30.6671,-87.9365,0.703,8.99,1111122 
DISL,ioos:station:DISL:MHPA:1,2017-03-03T14:00:00Z,30.6671,-87.9365,0.723,8.96,1111122 
DISL,ioos:station:DISL:MHPA:1,2017-03-03T14:30:00Z,30.6671,-87.9365,0.73,8.88,1111122 
DISL,ioos:station:DISL:MHPA:1,2017-03-03T15:00:00Z,30.6671,-87.9365,0.729,9.1,1111122 
DISL,ioos:station:DISL:MHPA:1,2017-03-03T15:30:00Z,30.6671,-87.9365,0.734,9.04,1111122 
DISL,ioos:station:DISL:MHPA:1,2017-03-03T16:00:00Z,30.6671,-87.9365,0.744,9.15,1111122 
DISL,ioos:station:DISL:MHPA:1,2017-03-03T16:30:00Z,30.6671,-87.9365,0.766,9.21,1111122 
DISL,ioos:station:DISL:MHPA:1,2017-03-03T17:00:00Z,30.6671,-87.9365,0.787,9.19,1111122 
DISL,ioos:station:DISL:MHPA:1,2017-03-03T17:30:00Z,30.6671,-87.9365,0.794,9.15,1111122 
DISL,ioos:station:DISL:MHPA:1,2017-03-03T18:00:00Z,30.6671,-87.9365,0.804,9.6,1111122 
DISL,ioos:station:DISL:MHPA:1,2017-03-03T18:30:00Z,30.6671,-87.9365,0.84,9.48,1111122 
DISL,ioos:station:DISL:MHPA:1,2017-03-03T19:00:00Z,30.6671,-87.9365,0.885,9.85,1111122 
DISL,ioos:station:DISL:MHPA:1,2017-03-03T19:30:00Z,30.6671,-87.9365,0.901,9.79,1111122 
DISL,ioos:station:DISL:MHPA:1,2017-03-03T20:00:00Z,30.6671,-87.9365,0.936,9.99,1111122 
DISL,ioos:station:DISL:MHPA:1,2017-03-03T20:30:00Z,30.6671,-87.9365,0.968,10.69,1111122 
DISL,ioos:station:DISL:MHPA:1,2017-03-03T21:00:00Z,30.6671,-87.9365,0.982,10.71,1111122 
DISL,ioos:station:DISL:MHPA:1,2017-03-03T21:30:00Z,30.6671,-87.9365,1.001,10.17,1111122 
DISL,ioos:station:DISL:MHPA:1,2017-03-03T22:00:00Z,30.6671,-87.9365,1.01,10.08,1111122 
DISL,ioos:station:DISL:MHPA:1,2017-03-03T22:30:00Z,30.6671,-87.9365,1.004,10.92,1111122 
DISL,ioos:station:DISL:MHPA:1,2017-03-03T23:00:00Z,30.6671,-87.9365,0.994,11.02,1111122 
DISL,ioos:station:DISL:MHPA:1,2017-03-03T23:30:00Z,30.6671,-87.9365,0.977,10.83,1111122 
DISL,ioos:station:DISL:MHPA:1,2017-03-04T00:00:00Z,30.6671,-87.9365,0.958,10.57,1111122 
DISL,ioos:station:DISL:MHPA:1,2017-03-04T00:30:00Z,30.6671,-87.9365,0.95,11.1,1111122 
DISL,ioos:station:DISL:MHPA:1,2017-03-04T01:00:00Z,30.6671,-87.9365,0.94,10.72,1111122 
DISL,ioos:station:DISL:MHPA:1,2017-03-04T01:30:00Z,30.6671,-87.9365,0.919,10.52,1111122 
DISL,ioos:station:DISL:MHPA:1,2017-03-04T02:00:00Z,30.6671,-87.9365,0.898,10.47,1111122 
DISL,ioos:station:DISL:MHPA:1,2017-03-04T02:30:00Z,30.6671,-87.9365,0.878,10.23,1111122 
DISL,ioos:station:DISL:MHPA:1,2017-03-04T03:00:00Z,30.6671,-87.9365,0.846,10.23,1111122 
DISL,ioos:station:DISL:MHPA:1,2017-03-04T03:30:00Z,30.6671,-87.9365,0.812,10.21,1111122 
DISL,ioos:station:DISL:MHPA:1,2017-03-04T04:00:00Z,30.6671,-87.9365,0.784,10.05,1111122 
DISL,ioos:station:DISL:MHPA:1,2017-03-04T04:30:00Z,30.6671,-87.9365,0.762,10.14,1111122 
DISL,ioos:station:DISL:MHPA:1,2017-03-04T05:00:00Z,30.6671,-87.9365,0.742,9.95,1111122 
DISL,ioos:station:DISL:MHPA:1,2017-03-04T05:30:00Z,30.6671,-87.9365,0.724,10.26,1111122 
DISL,ioos:station:DISL:MHPA:1,2017-03-04T06:00:00Z,30.6671,-87.9365,0.707,10.23,1111122 
DISL,ioos:station:DISL:MHPA:1,2017-03-04T06:30:00Z,30.6671,-87.9365,0.694,10.15,1111122 
DISL,ioos:station:DISL:MHPA:1,2017-03-04T07:00:00Z,30.6671,-87.9365,0.683,10.05,1111122 
DISL,ioos:station:DISL:MHPA:1,2017-03-04T07:30:00Z,30.6671,-87.9365,0.671,10.04,1111122 
DISL,ioos:station:DISL:MHPA:1,2017-03-04T08:00:00Z,30.6671,-87.9365,0.659,10.03,1111122 
DISL,ioos:station:DISL:MHPA:1,2017-03-04T08:30:00Z,30.6671,-87.9365,0.648,9.77,1111122 
DISL,ioos:station:DISL:MHPA:1,2017-03-04T09:00:00Z,30.6671,-87.9365,0.639,9.74,1111122 
DISL,ioos:station:DISL:MHPA:1,2017-03-04T09:30:00Z,30.6671,-87.9365,0.634,9.84,1111122 
DISL,ioos:station:DISL:MHPA:1,2017-03-04T10:00:00Z,30.6671,-87.9365,0.628,9.74,1111122 
DISL,ioos:station:DISL:MHPA:1,2017-03-04T10:30:00Z,30.6671,-87.9365,0.622,9.76,1111122 
DISL,ioos:station:DISL:MHPA:1,2017-03-04T11:00:00Z,30.6671,-87.9365,0.621,9.57,1111122 
DISL,ioos:station:DISL:MHPA:1,2017-03-04T11:30:00Z,30.6671,-87.9365,0.622,9.64,1111122 
DISL,ioos:station:DISL:MHPA:1,2017-03-04T12:00:00Z,30.6671,-87.9365,0.623,9.64,1111122 
DISL,ioos:station:DISL:MHPA:1,2017-03-04T12:30:00Z,30.6671,-87.9365,0.627,9.75,1111122 
DISL,ioos:station:DISL:MHPA:1,2017-03-04T13:00:00Z,30.6671,-87.9365,0.64,9.72,1111122 
DISL,ioos:station:DISL:MHPA:1,2017-03-04T13:30:00Z,30.6671,-87.9365,0.669,9.65,1111122 
DISL,ioos:station:DISL:MHPA:1,2017-03-04T14:00:00Z,30.6671,-87.9365,0.69,9.74,1111122 
DISL,ioos:station:DISL:MHPA:1,2017-03-04T14:30:00Z,30.6671,-87.9365,0.717,9.79,1111122 
DISL,ioos:station:DISL:MHPA:1,2017-03-04T15:00:00Z,30.6671,-87.9365,0.757,9.85,1111122 
DISL,ioos:station:DISL:MHPA:1,2017-03-04T15:30:00Z,30.6671,-87.9365,0.832,9.89,1111122 
DISL,ioos:station:DISL:MHPA:1,2017-03-04T16:00:00Z,30.6671,-87.9365,0.897,9.88,1111122 
DISL,ioos:station:DISL:MHPA:1,2017-03-04T16:30:00Z,30.6671,-87.9365,0.911,9.99,1111122 
DISL,ioos:station:DISL:MHPA:1,2017-03-04T17:00:00Z,30.6671,-87.9365,0.932,10.09,1111122 
DISL,ioos:station:DISL:MHPA:1,2017-03-04T17:30:00Z,30.6671,-87.9365,0.955,10.15,1111122 
DISL,ioos:station:DISL:MHPA:1,2017-03-04T18:00:00Z,30.6671,-87.9365,0.989,10.18,1111122 
DISL,ioos:station:DISL:MHPA:1,2017-03-04T18:30:00Z,30.6671,-87.9365,1.014,10.39,1111122 
DISL,ioos:station:DISL:MHPA:1,2017-03-04T19:00:00Z,30.6671,-87.9365,1.038,10.49,1111122 
DISL,ioos:station:DISL:MHPA:1,2017-03-04T19:30:00Z,30.6671,-87.9365,1.054,10.28,1111122 
DISL,ioos:station:DISL:MHPA:1,2017-03-04T20:00:00Z,30.6671,-87.9365,1.085,10.28,1111122 
DISL,ioos:station:DISL:MHPA:1,2017-03-04T20:30:00Z,30.6671,-87.9365,1.116,10.42,1111122 
DISL,ioos:station:DISL:MHPA:1,2017-03-04T21:00:00Z,30.6671,-87.9365,1.142,10.72,1111122 
DISL,ioos:station:DISL:MHPA:1,2017-03-04T21:30:00Z,30.6671,-87.9365,1.168,10.61,1111122 
DISL,ioos:station:DISL:MHPA:1,2017-03-04T22:00:00Z,30.6671,-87.9365,1.177,10.55,1111122 
DISL,ioos:station:DISL:MHPA:1,2017-03-04T22:30:00Z,30.6671,-87.9365,1.175,10.7,1111122 
DISL,ioos:station:DISL:MHPA:1,2017-03-04T23:00:00Z,30.6671,-87.9365,1.156,10.83,1111122 
DISL,ioos:station:DISL:MHPA:1,2017-03-04T23:30:00Z,30.6671,-87.9365,1.132,10.78,1111122 
DISL,ioos:station:DISL:MHPA:1,2017-03-05T00:00:00Z,30.6671,-87.9365,1.152,10.74,1111122 
DISL,ioos:station:DISL:MHPA:1,2017-03-05T00:30:00Z,30.6671,-87.9365,1.149,10.77,1111122 
DISL,ioos:station:DISL:MHPA:1,2017-03-05T01:00:00Z,30.6671,-87.9365,1.147,10.92,1111122 
DISL,ioos:station:DISL:MHPA:1,2017-03-05T01:30:00Z,30.6671,-87.9365,1.115,11.03,1111122 
DISL,ioos:station:DISL:MHPA:1,2017-03-05T02:00:00Z,30.6671,-87.9365,1.079,10.83,1111122 
DISL,ioos:station:DISL:MHPA:1,2017-03-05T02:30:00Z,30.6671,-87.9365,1.041,11.15,1111122 
DISL,ioos:station:DISL:MHPA:1,2017-03-05T03:00:00Z,30.6671,-87.9365,1.002,10.92,1111122 
DISL,ioos:station:DISL:MHPA:1,2017-03-05T03:30:00Z,30.6671,-87.9365,0.959,10.93,1111122 
DISL,ioos:station:DISL:MHPA:1,2017-03-05T04:00:00Z,30.6671,-87.9365,0.92,10.88,1111122 
DISL,ioos:station:DISL:MHPA:1,2017-03-05T04:30:00Z,30.6671,-87.9365,0.89,10.8,1111122 
DISL,ioos:station:DISL:MHPA:1,2017-03-05T05:00:00Z,30.6671,-87.9365,0.86,10.87,1111122 
DISL,ioos:station:DISL:MHPA:1,2017-03-05T05:30:00Z,30.6671,-87.9365,0.831,10.7,1111122 
DISL,ioos:station:DISL:MHPA:1,2017-03-05T06:00:00Z,30.6671,-87.9365,0.81,10.67,1111122 
DISL,ioos:station:DISL:MHPA:1,2017-03-05T06:30:00Z,30.6671,-87.9365,0.784,10.79,1111122 
DISL,ioos:station:DISL:MHPA:1,2017-03-05T07:00:00Z,30.6671,-87.9365,0.764,10.82,1111122 
DISL,ioos:station:DISL:MHPA:1,2017-03-05T07:30:00Z,30.6671,-87.9365,0.744,10.93,1111122 
DISL,ioos:station:DISL:MHPA:1,2017-03-05T08:00:00Z,30.6671,-87.9365,0.725,10.94,1111122 
DISL,ioos:station:DISL:MHPA:1,2017-03-05T08:30:00Z,30.6671,-87.9365,0.706,11.0,1111122 
DISL,ioos:station:DISL:MHPA:1,2017-03-05T09:00:00Z,30.6671,-87.9365,0.689,10.95,1111122 
DISL,ioos:station:DISL:MHPA:1,2017-03-05T09:30:00Z,30.6671,-87.9365,0.674,10.85,1111122 
DISL,ioos:station:DISL:MHPA:1,2017-03-05T10:00:00Z,30.6671,-87.9365,0.667,10.94,1111122 
DISL,ioos:station:DISL:MHPA:1,2017-03-05T10:30:00Z,30.6671,-87.9365,0.669,11.05,1111122 
DISL,ioos:station:DISL:MHPA:1,2017-03-05T11:00:00Z,30.6671,-87.9365,0.672,11.25,1111122 
DISL,ioos:station:DISL:MHPA:1,2017-03-05T11:30:00Z,30.6671,-87.9365,0.677,11.14,1111122 
DISL,ioos:station:DISL:MHPA:1,2017-03-05T12:00:00Z,30.6671,-87.9365,0.689,11.04,1111122 
DISL,ioos:station:DISL:MHPA:1,2017-03-05T12:30:00Z,30.6671,-87.9365,0.714,10.92,1111122 
DISL,ioos:station:DISL:MHPA:1,2017-03-05T13:00:00Z,30.6671,-87.9365,0.756,10.83,1111122 
DISL,ioos:station:DISL:MHPA:1,2017-03-05T13:30:00Z,30.6671,-87.9365,0.796,10.74,1111122 
DISL,ioos:station:DISL:MHPA:1,2017-03-05T14:00:00Z,30.6671,-87.9365,0.845,10.62,1111122 
DISL,ioos:station:DISL:MHPA:1,2017-03-05T14:30:00Z,30.6671,-87.9365,0.893,10.55,1111122 
DISL,ioos:station:DISL:MHPA:1,2017-03-05T15:00:00Z,30.6671,-87.9365,0.937,10.49,1111122 
DISL,ioos:station:DISL:MHPA:1,2017-03-05T15:30:00Z,30.6671,-87.9365,0.984,10.35,1111122 
DISL,ioos:station:DISL:MHPA:1,2017-03-05T16:00:00Z,30.6671,-87.9365,1.036,10.27,1111122 
DISL,ioos:station:DISL:MHPA:1,2017-03-05T16:30:00Z,30.6671,-87.9365,1.082,10.27,1111122 
DISL,ioos:station:DISL:MHPA:1,2017-03-05T17:00:00Z,30.6671,-87.9365,1.161,10.2,1111122 
DISL,ioos:station:DISL:MHPA:1,2017-03-05T17:30:00Z,30.6671,-87.9365,1.189,10.25,1111122 
DISL,ioos:station:DISL:MHPA:1,2017-03-05T18:00:00Z,30.6671,-87.9365,1.207,10.35,1111122 
DISL,ioos:station:DISL:MHPA:1,2017-03-05T18:30:00Z,30.6671,-87.9365,1.217,10.5,1111122 
DISL,ioos:station:DISL:MHPA:1,2017-03-05T19:00:00Z,30.6671,-87.9365,1.246,10.48,1111122 
DISL,ioos:station:DISL:MHPA:1,2017-03-05T19:30:00Z,30.6671,-87.9365,1.3,10.38,1111122 
DISL,ioos:station:DISL:MHPA:1,2017-03-05T20:00:00Z,30.6671,-87.9365,1.337,10.27,1111122 
DISL,ioos:station:DISL:MHPA:1,2017-03-05T20:30:00Z,30.6671,-87.9365,1.392,10.53,1111122 
DISL,ioos:station:DISL:MHPA:1,2017-03-05T21:00:00Z,30.6671,-87.9365,1.389,10.6,1111122 
DISL,ioos:station:DISL:MHPA:1,2017-03-05T21:30:00Z,30.6671,-87.9365,1.411,10.78,1111122 
DISL,ioos:station:DISL:MHPA:1,2017-03-05T22:00:00Z,30.6671,-87.9365,1.417,10.36,1111122 
DISL,ioos:station:DISL:MHPA:1,2017-03-05T22:30:00Z,30.6671,-87.9365,1.429,10.92,1111122 
DISL,ioos:station:DISL:MHPA:1,2017-03-05T23:00:00Z,30.6671,-87.9365,1.417,10.9,1111122 
DISL,ioos:station:DISL:MHPA:1,2017-03-05T23:30:00Z,30.6671,-87.9365,1.386,10.97,1111122 
DISL,ioos:station:DISL:MHPA:1,2017-03-06T00:00:00Z,30.6671,-87.9365,1.381,10.79,1111122 
DISL,ioos:station:DISL:MHPA:1,2017-03-06T00:30:00Z,30.6671,-87.9365,1.359,10.55,1111122 
DISL,ioos:station:DISL:MHPA:1,2017-03-06T01:00:00Z,30.6671,-87.9365,1.351,10.52,1111122 
DISL,ioos:station:DISL:MHPA:1,2017-03-06T01:30:00Z,30.6671,-87.9365,1.349,10.63,1111122 
DISL,ioos:station:DISL:MHPA:1,2017-03-06T02:00:00Z,30.6671,-87.9365,1.347,10.78,1111122 
DISL,ioos:station:DISL:MHPA:1,2017-03-06T02:30:00Z,30.6671,-87.9365,1.34,10.72,1111122 
DISL,ioos:station:DISL:MHPA:1,2017-03-06T03:00:00Z,30.6671,-87.9365,1.316,10.5,1111122 
DISL,ioos:station:DISL:MHPA:1,2017-03-06T03:30:00Z,30.6671,-87.9365,1.316,10.51,1111122 
DISL,ioos:station:DISL:MHPA:1,2017-03-06T04:00:00Z,30.6671,-87.9365,1.307,10.26,1111122 
DISL,ioos:station:DISL:MHPA:1,2017-03-06T04:30:00Z,30.6671,-87.9365,1.266,10.3,1111122 
DISL,ioos:station:DISL:MHPA:1,2017-03-06T05:00:00Z,30.6671,-87.9365,1.236,10.14,1111122 
DISL,ioos:station:DISL:MHPA:1,2017-03-06T05:30:00Z,30.6671,-87.9365,1.196,10.02,1111122 
DISL,ioos:station:DISL:MHPA:1,2017-03-06T06:00:00Z,30.6671,-87.9365,1.152,9.97,1111122 
DISL,ioos:station:DISL:MHPA:1,2017-03-06T06:30:00Z,30.6671,-87.9365,1.121,10.08,1111122 
DISL,ioos:station:DISL:MHPA:1,2017-03-06T07:00:00Z,30.6671,-87.9365,1.108,10.06,1111122 
DISL,ioos:station:DISL:MHPA:1,2017-03-06T07:30:00Z,30.6671,-87.9365,1.092,9.91,1111122 
DISL,ioos:station:DISL:MHPA:1,2017-03-06T08:00:00Z,30.6671,-87.9365,1.08,9.8,1111122 
DISL,ioos:station:DISL:MHPA:1,2017-03-06T08:30:00Z,30.6671,-87.9365,1.072,9.69,1111122 
DISL,ioos:station:DISL:MHPA:1,2017-03-06T09:00:00Z,30.6671,-87.9365,1.041,9.7,1111122 
DISL,ioos:station:DISL:MHPA:1,2017-03-06T09:30:00Z,30.6671,-87.9365,1.02,9.87,1111122 
DISL,ioos:station:DISL:MHPA:1,2017-03-06T10:00:00Z,30.6671,-87.9365,1.0,9.68,1111122 
DISL,ioos:station:DISL:MHPA:1,2017-03-06T10:30:00Z,30.6671,-87.9365,0.98,9.33,1111122 
DISL,ioos:station:DISL:MHPA:1,2017-03-06T11:00:00Z,30.6671,-87.9365,0.966,9.64,1111122 
DISL,ioos:station:DISL:MHPA:1,2017-03-06T11:30:00Z,30.6671,-87.9365,0.965,9.71,1111122 
DISL,ioos:station:DISL:MHPA:1,2017-03-06T12:00:00Z,30.6671,-87.9365,0.969,9.61,1111122 
DISL,ioos:station:DISL:MHPA:1,2017-03-06T12:30:00Z,30.6671,-87.9365,0.975,9.85,1111122 
DISL,ioos:station:DISL:MHPA:1,2017-03-06T13:00:00Z,30.6671,-87.9365,0.987,9.8,1111122 
DISL,ioos:station:DISL:MHPA:1,2017-03-06T13:30:00Z,30.6671,-87.9365,1.011,9.48,1111122 
DISL,ioos:station:DISL:MHPA:1,2017-03-06T14:00:00Z,30.6671,-87.9365,1.067,9.49,1111122 
DISL,ioos:station:DISL:MHPA:1,2017-03-06T14:30:00Z,30.6671,-87.9365,1.117,9.72,1111122 
DISL,ioos:station:DISL:MHPA:1,2017-03-06T15:00:00Z,30.6671,-87.9365,1.158,9.81,1111122 
DISL,ioos:station:DISL:MHPA:1,2017-03-06T15:30:00Z,30.6671,-87.9365,1.203,9.82,1111122 
DISL,ioos:station:DISL:MHPA:1,2017-03-06T16:00:00Z,30.6671,-87.9365,1.255,9.67,1111122 
DISL,ioos:station:DISL:MHPA:1,2017-03-06T16:30:00Z,30.6671,-87.9365,1.302,9.47,1111122 
DISL,ioos:station:DISL:MHPA:1,2017-03-06T17:00:00Z,30.6671,-87.9365,1.327,9.54,1111122 
DISL,ioos:station:DISL:MHPA:1,2017-03-06T17:30:00Z,30.6671,-87.9365,1.347,9.85,1111122 
DISL,ioos:station:DISL:MHPA:1,2017-03-06T18:00:00Z,30.6671,-87.9365,1.37,10.03,1111122 
DISL,ioos:station:DISL:MHPA:1,2017-03-06T18:30:00Z,30.6671,-87.9365,1.399,10.02,1111122 